Location: Devore Heights
(34.2372°N, 117.4156°W)
Time: 04:35:39
(UTC+00:00)

S-56A Canister/Altair - Pass Details

Date: 14 September 2024
Orbit: 636 x 2487 km, 38.9° (Epoch: 05 October)

Event Time Altitude Azimuth Distance (km) Brightness Sun altitude
Rises 00:18:11 0° 198° (SSW) 2,955 10.9 19.8°
Reaches altitude 10° 00:21:00 10° 178° (S) 2,145 10.0 19.2°
Maximum altitude 00:24:16 18° 135° (SE) 1,838 9.2 18.5°
Drops below altitude 10° 00:28:06 10° 94° (E) 2,590 9.7 17.8°
Sets 00:31:58 0° 76° (ENE) 3,859 10.5 17.0°
